Regional Weather Roundup
Issued by NWS

Home | Current Version | Previous Version | Graphics & Text | Print | Product List | Glossary On
Versions: 1 2 3 4 5 6 7 8 9 10 11 12 13 14 15 16 17 18 19 20 21 22 23 24 25 26 27 28 29 30 31 32 33 34 35 36 37 38 39 40 41 42 43 44 45 46 47 48 49 50
000
ASUS43 KOAX 120810
RWRNE

WEATHER ROUNDUP FOR NEBRASKA
NATIONAL WEATHER SERVICE OMAHA NE
300 AM CDT SAT JUL 12 2014

NOTES: SATELLITE DATA IS BEING USED TO AUGMENT CLOUD COVER ABOVE
       12000 FEET.
       "FAIR" INDICATES FEW OR NO CLOUDS BELOW 12,000 FEET WITH NO
       SIGNIFICANT WEATHER AND/OR OBSTRUCTIONS TO VISIBILITY.

  * THESE STATIONS DO NOT REPORT WEATHER SUCH AS RAIN...SNOW OR FOG.

NEZ001>004-019>022-054>056-120900-
NEBRASKA PANHANDLE

CITY           SKY/WX    TMP DP  RH WIND       PRES   REMARKS
SCOTTSBLUFF    MOCLDY    61  60  97 NE6       30.16F
ALLIANCE       CLOUDY    61  59  93 NW6       30.15S
CHADRON        MOCLDY    63  58  83 SW5       30.11F
KIMBALL        CLOUDY    63  62  96 N5        30.17F
SIDNEY         CLOUDY    64  61  90 N13       30.15F
$$

NEZ057>060-069>072-079>082-120900-
SOUTHWEST NEBRASKA

CITY           SKY/WX    TMP DP  RH WIND       PRES   REMARKS
NORTH PLATTE   CLOUDY    68  64  87 E3        30.03S
IMPERIAL       CLOUDY    70  66  87 N8        30.05R
LEXINGTON      CLOUDY    73  65  75 W3        30.01F
MCCOOK         CLOUDY    74  70  87 S5        30.00F
OGALLALA       CLOUDY    67  65  93 N16       30.03F
$$

NEZ005>010-023>029-035>040-094-120900-
NORTH CENTRAL NEBRASKA

CITY           SKY/WX    TMP DP  RH WIND       PRES   REMARKS
VALENTINE      CLOUDY    70  67  90 S5        30.06S
AINSWORTH      CLOUDY    67  66  96 E9        30.03F
BROKEN BOW     LGT RAIN  67  65  93 N8        30.05F
O`NEILL        TSTM      69  65  88 E5        30.07S
ORD            LGT RAIN  70  68  93 N18G28    30.04R
THEDFORD       CLOUDY    67  66  96 E8        30.02F
$$

NEZ041-046>049-061>064-073>077-083>087-120900-
SOUTH CENTRAL NEBRASKA

CITY           SKY/WX    TMP DP  RH WIND       PRES   REMARKS
GRAND ISLAND   CLOUDY    76  65  68 NW5       30.01R
AURORA         CLOUDY    76  66  71 SW8       29.99S
HASTINGS       CLOUDY    76  61  59 SW7       30.00S
HEBRON         MOCLDY    78  64  63 S8        30.00R
HOLDREGE       CLOUDY    74  60  61 SW7       30.01F
KEARNEY *      CLOUDY    75  63  64 S8        30.01S
YORK           MOCLDY    75  66  73 SW6       29.99S
$$

NEZ011>018-030>034-042>045-120900-
NORTHEAST NEBRASKA

CITY           SKY/WX    TMP DP  RH WIND       PRES   REMARKS
NORFOLK        CLOUDY    72  67  84 N6        30.06R
ALBION         LGT RAIN  73  70  91 NE16      30.02F
BLAIR          CLOUDY    74  71  90 N18       30.03R
FREMONT        CLOUDY    75  73  91 NE7       30.02R
TEKAMAH        CLOUDY    72  68  87 NE10      30.02R
WAYNE          CLOUDY    71  70  95 NW3       30.07R
$$

NEZ050>053-065>068-078-088>093-120900-
SOUTHEAST NEBRASKA

CITY           SKY/WX    TMP DP  RH WIND       PRES   REMARKS
LINCOLN        MOCLDY    79  65  62 S7        29.99R
OMAHA EPPLEY   CLOUDY    75  72  90 N12       30.01R
BEATRICE       PTCLDY    76  65  67 S9        29.99S
FALLS CITY     PTCLDY    77  69  76 S9        29.99F
NEBRASKA CITY  MOCLDY    77  67  70 SW12      29.99R
PLATTSMOUTH    CLOUDY    78  67  70 S7        29.99R
$$

NEZ044-045-051>053-067-120900-
OMAHA AREA

CITY           SKY/WX    TMP DP  RH WIND       PRES   REMARKS
OMAHA EPPLEY   CLOUDY    75  72  90 N12       30.01R
BLAIR          CLOUDY    74  71  90 N18       30.03R
FREMONT        CLOUDY    75  73  91 NE7       30.02R
MILLARD        CLOUDY    77  74  88 CALM      30.00R
OFFUTT AFB     CLOUDY    76  76 100 N5        30.00R
PLATTSMOUTH    CLOUDY    78  67  70 S7        29.99R
WAHOO          FAIR      75  72  90 N5        30.01R
$$


USA.gov is the U.S. government's official web portal to all federal, state and local government web resources and services.